Date String (YYYY-MM-DD hh:mm:ss) UTC,Instrument flags,absolute air pressure of the measurement (hPa),sample flow rate (lpm),inlet stack bypass flow (lpm),air temperature of the measurement (°C),ambient temperature measured by the external sensor (°C),aerosol sample conditioner tube jacket temperature (°C),OPC LED temperature (°C),internal box temperature (°C),relative humidity of the measurement (%),span deviation,mass concentration of particles derived from Lorenz-Mie calculation of OPC scattering (μg/m³),mass concentration of particles derived from Lorenz-Mie calculation of OPC scattering (μg/m³),mass concentration of particles derived from Lorenz-Mie calculation of OPC scattering (μg/m³)
DateTimeUTC,F1_M11,P_M11,Q1_M11,Q2_M11,T1_M11,T2_M11,T3_M11,T4_M11,T5_M11,U1_M11,ZSPAN_M11,X0_M11,X2_M11,X1_M11
2024-04-15 16:00:00,SystemResetWarning,0817.9,5.03,000.00,025.5,022.7,000.0,034.6,026.2,011.1,0000.0,0014.16,0003.50,0002.22
2024-04-15 16:01:00,SystemResetWarning,0817.9,5.00,000.00,025.4,023.0,000.0,034.4,026.4,011.2,0000.0,0014.37,0003.50,0002.22
2024-04-15 16:02:00,SystemResetWarning,0817.9,5.00,000.00,025.4,023.4,000.0,034.3,026.8,011.0,0000.0,0015.31,0003.49,0002.23
2024-04-15 16:03:00,SystemResetWarning,0817.9,5.00,000.00,025.4,023.7,000.0,034.2,027.0,010.2,0000.0,0014.87,0003.47,0002.23
2024-04-15 16:04:00,SystemResetWarning,0817.8,4.99,000.00,025.5,024.0,000.0,034.2,027.2,010.1,0000.0,0014.42,0003.42,0002.20
2024-04-15 16:05:00,SystemResetWarning,0817.8,5.00,000.00,025.5,024.3,000.0,034.1,027.3,010.4,0000.0,0014.27,0003.43,0002.20
2024-04-15 16:06:00,SystemResetWarning,0817.8,5.00,000.00,025.6,024.5,000.0,034.1,027.4,010.9,0000.0,0013.92,0003.43,0002.19
2024-04-15 16:07:00,SystemResetWarning,0817.8,5.00,000.00,025.6,024.7,000.0,034.1,027.5,011.1,0000.0,0013.30,0003.39,0002.18
2024-04-15 16:08:00,SystemResetWarning,0817.7,5.01,000.00,025.7,024.9,000.0,034.1,027.5,010.9,0000.0,0013.54,0003.41,0002.17
2024-04-15 16:09:00,SystemResetWarning,0817.8,5.00,000.00,025.7,025.1,000.0,034.1,027.6,010.2,0000.0,0013.06,0003.37,0002.15
2024-04-15 16:10:00,SystemResetWarning,0817.8,5.00,000.00,025.8,025.2,000.0,034.1,027.6,009.8,0000.0,0012.47,0003.35,0002.12
2024-04-15 16:11:00,SystemResetWarning,0817.8,4.99,000.00,025.8,025.3,000.0,034.1,027.7,009.5,0000.0,0011.65,0003.36,0002.11
2024-04-15 16:12:00,SystemResetWarning,0817.9,5.00,000.00,025.9,025.4,000.0,034.1,027.7,009.4,0000.0,0011.68,0003.36,0002.08
2024-04-15 16:13:00,SystemResetWarning,0818.0,4.99,000.00,025.9,025.5,000.0,034.1,027.8,009.6,0000.0,0010.26,0003.33,0002.06
2024-04-15 16:14:00,SystemResetWarning,0818.0,5.00,000.00,026.0,025.5,000.0,034.2,027.9,009.5,0000.0,0009.54,0003.34,0002.05
2024-04-15 16:15:00,SystemResetWarning,0818.0,5.00,000.00,026.0,025.6,000.0,034.2,027.9,009.0,0000.0,0009.52,0003.39,0002.06
2024-04-15 16:16:00,SystemResetWarning,0817.9,4.99,000.00,026.0,024.6,000.0,034.3,027.3,009.2,0000.0,0009.70,0003.38,0002.06
2024-04-15 16:17:00,SystemResetWarning,0817.8,5.00,000.00,025.6,022.7,000.0,034.3,026.4,009.6,0000.0,0009.76,0003.37,0002.06
2024-04-15 16:18:00,SystemResetWarning,0817.8,5.02,000.00,025.3,022.5,000.0,034.3,026.2,009.5,0000.0,0009.59,0003.33,0002.04
2024-04-15 16:19:00,SystemResetWarning,0817.8,5.00,000.00,025.2,022.9,000.0,034.1,026.3,009.9,0000.0,0009.28,0003.31,0002.02
2024-04-15 16:20:00,SystemResetWarning,0817.7,5.00,000.00,025.2,023.2,000.0,034.0,026.6,009.8,0000.0,0008.89,0003.29,0001.99
2024-04-15 16:21:00,SystemResetWarning,0817.7,5.00,000.00,025.3,023.6,000.0,033.9,026.8,010.1,0000.0,0009.09,0003.28,0002.00
2024-04-15 16:22:00,SystemResetWarning,0817.7,5.00,000.00,025.3,023.9,000.0,033.9,027.0,011.0,0000.0,0009.23,0003.27,0002.02
2024-04-15 16:23:00,SystemResetWarning,0817.7,5.00,000.00,025.4,024.2,000.0,033.9,027.1,010.8,0000.0,0009.48,0003.29,0002.05
2024-04-15 16:24:00,SystemResetWarning,0817.7,5.00,000.00,025.4,024.4,000.0,033.9,027.2,010.7,0000.0,0009.71,0003.29,0002.04
2024-04-15 16:25:00,SystemResetWarning,0817.6,4.99,000.00,025.5,024.6,000.0,033.8,027.3,010.9,0000.0,0010.02,0003.31,0002.07
2024-04-15 16:26:00,SystemResetWarning,0817.6,5.00,000.00,025.5,024.8,000.0,033.8,027.4,010.8,0000.0,0010.21,0003.33,0002.07
2024-04-15 16:27:00,SystemResetWarning,0817.6,5.00,000.00,025.6,025.0,000.0,033.9,027.5,010.7,0000.0,0010.07,0003.33,0002.08
2024-04-15 16:28:00,SystemResetWarning,0817.6,5.02,000.00,025.7,025.1,000.0,033.9,027.5,010.7,0000.0,0010.04,0003.34,0002.09
2024-04-15 16:29:00,SystemResetWarning,0817.6,5.01,000.00,025.7,025.2,000.0,033.9,027.5,010.8,0000.0,0010.06,0003.34,0002.10
2024-04-15 16:30:00,SystemResetWarning,0817.6,4.99,000.00,025.8,025.3,000.0,033.9,027.6,010.6,0000.0,0010.35,0003.34,0002.12
2024-04-15 16:31:00,SystemResetWarning,0817.6,4.99,000.00,025.8,025.4,000.0,033.9,027.7,011.2,0000.0,0010.50,0003.35,0002.16
2024-04-15 16:32:00,SystemResetWarning,0817.6,5.00,000.00,025.9,025.2,000.0,034.0,027.6,011.8,0000.0,0010.00,0003.42,0002.20
2024-04-15 16:33:00,SystemResetWarning,0817.5,4.99,000.00,025.6,023.4,000.0,034.1,026.6,012.1,0000.0,0009.84,0003.48,0002.22
2024-04-15 16:34:00,SystemResetWarning,0817.4,5.01,000.00,025.2,022.2,000.0,034.1,025.9,012.4,0000.0,0010.16,0003.48,0002.22
2024-04-15 16:35:00,SystemResetWarning,0817.4,5.00,000.00,025.1,022.5,000.0,034.0,026.0,012.2,0000.0,0010.16,0003.54,0002.25
2024-04-15 16:36:00,SystemResetWarning,0817.5,5.00,000.00,025.0,022.9,000.0,033.8,026.3,012.7,0000.0,0011.28,0003.60,0002.27
2024-04-15 16:37:00,SystemResetWarning,0817.5,5.00,000.00,025.1,023.2,000.0,033.7,026.5,012.7,0000.0,0011.67,0003.62,0002.30
2024-04-15 16:38:00,SystemResetWarning,0817.5,5.01,000.00,025.1,023.5,000.0,033.7,026.7,012.5,0000.0,0011.73,0003.64,0002.34
2024-04-15 16:39:00,SystemResetWarning,0817.5,5.00,000.00,025.2,023.8,000.0,033.7,026.9,012.7,0000.0,0011.84,0003.71,0002.40
2024-04-15 16:40:00,SystemResetWarning,0817.5,4.99,000.00,025.2,024.1,000.0,033.7,027.0,013.3,0000.0,0012.09,0003.81,0002.45
2024-04-15 16:41:00,SystemResetWarning,0817.5,4.99,000.00,025.3,024.4,000.0,033.6,027.1,013.9,0000.0,0011.93,0003.86,0002.51
2024-04-15 16:42:00,SystemResetWarning,0817.4,5.00,000.00,025.3,024.6,000.0,033.6,027.2,013.8,0000.0,0012.75,0003.93,0002.58
2024-04-15 16:43:00,SystemResetWarning,0817.4,5.00,000.00,025.4,024.7,000.0,033.7,027.3,013.5,0000.0,0014.00,0003.99,0002.65
2024-04-15 16:44:00,SystemResetWarning,0817.3,5.00,000.00,025.5,024.9,000.0,033.7,027.3,013.6,0000.0,0015.71,0004.08,0002.73
2024-04-15 16:45:00,SystemResetWarning,0817.3,5.01,000.00,025.5,025.0,000.0,033.7,027.4,012.9,0000.0,0015.85,0004.12,0002.80
2024-04-15 16:46:00,SystemResetWarning,0817.3,5.01,000.00,025.6,025.1,000.0,033.7,027.5,012.5,0000.0,0015.59,0004.12,0002.85
2024-04-15 16:47:00,SystemResetWarning,0817.3,5.00,000.00,025.7,025.2,000.0,033.8,027.6,012.7,0000.0,0014.66,0004.11,0002.87
2024-04-15 16:48:00,SystemResetWarning,0817.2,4.99,000.00,025.7,025.3,000.0,033.8,027.6,013.4,0000.0,0013.89,0004.12,0002.90
2024-04-15 16:49:00,SystemResetWarning,0817.2,4.98,000.00,025.7,024.4,000.0,033.9,027.1,013.7,0000.0,0014.04,0004.15,0002.94
2024-04-15 16:50:00,SystemResetWarning,0817.1,5.01,000.00,025.3,022.5,000.0,033.9,026.1,013.6,0000.0,0014.33,0004.15,0002.95
2024-04-15 16:51:00,SystemResetWarning,0817.1,5.01,000.00,025.0,022.2,000.0,033.9,025.8,013.7,0000.0,0015.19,0004.15,0002.95
2024-04-15 16:52:00,SystemResetWarning,0817.1,5.00,000.00,025.0,022.6,000.0,033.7,026.0,013.9,0000.0,0014.97,0004.16,0002.94
2024-04-15 16:53:00,SystemResetWarning,0817.1,4.99,000.00,025.0,023.0,000.0,033.6,026.3,013.7,0000.0,0014.42,0004.18,0002.92
2024-04-15 16:54:00,SystemResetWarning,0817.1,5.01,000.00,025.0,023.3,000.0,033.6,026.5,013.7,0000.0,0013.91,0004.19,0002.89
2024-04-15 16:55:00,SystemResetWarning,0817.1,5.00,000.00,025.1,023.7,000.0,033.5,026.7,014.0,0000.0,0013.27,0004.19,0002.88
2024-04-15 16:56:00,SystemResetWarning,0817.1,4.99,000.00,025.1,024.0,000.0,033.5,026.9,013.7,0000.0,0012.90,0004.21,0002.87
2024-04-15 16:57:00,SystemResetWarning,0817.1,5.00,000.00,025.2,024.2,000.0,033.5,027.0,013.8,0000.0,0013.25,0004.24,0002.90
2024-04-15 16:58:00,SystemResetWarning,0817.1,5.00,000.00,025.2,024.5,000.0,033.5,027.1,014.2,0000.0,0015.12,0004.32,0002.95
2024-04-15 16:59:00,SystemResetWarning,0817.1,5.00,000.00,025.3,024.7,000.0,033.5,027.2,014.4,0000.0,0015.51,0004.36,0002.97
